Kinston, NC

6:00 AM EDT on May 21, 2018 (GMT -0400)
Kinston Regional Jetport / Stallings Field

Weather History for KISO - December, 2012

Change the Weather History Date:

Thursday, December 20, 2012

  Actual Average Record
Temperature  
Mean Temperature 52 °F -  
Max Temperature 65 °F 52 °F 75 °F (1984)
Min Temperature 39 °F 34 °F 19 °F (1985)
Degree Days  
Heating Degree Days 12    
Growing Degree Days 2 (Base 50)    
Moisture  
Dew Point 48 °F    
Average Humidity 83    
Maximum Humidity 97    
Minimum Humidity 59    
Precipitation  
Precipitation 0.14 in - - ()
Sea Level Pressure  
Sea Level Pressure 29.96 in    
Wind  
Wind Speed 5 mph (SE)    
Max Wind Speed 24 mph    
Max Gust Speed 37 mph    
Visibility 9 miles    
Events Rain    
Averages and records for this station are not official NWS values.
T = Trace of Precipitation, MM = Missing Value Source: NWS Daily Summary

Daily Weather History Graph

Daily Weather History Graph

Search for Another Location

Airport or City:

Astronomy

Dec. 20, 2012 Rise Set
Actual Time 7:15 AM EST 5:01 PM EST
Civil Twilight 6:46 AM EST 5:29 PM EST
Nautical Twilight 6:15 AM EST 6:01 PM EST
Astronomical Twilight 5:44 AM EST 6:32 PM EST
Moon 12:08 PM EST (12/20) 12:11 AM EST (12/20)
Length of Visible Light 10h 43m
Length of Day
9h 46m
First Quarter, 55% of the Moon is Illuminated
Dec 20
First Quarter
Dec 28
Full
Jan 4
Last Quarter
Jan 11
New
Jan 18
First Quarter

Hourly Weather History & Observations

Time (EST) Temp. Windchill Dew Point Humidity Pressure Visibility Wind Dir Wind Speed Gust Speed Precip Events Conditions
12:15 AM 39.7 °F - 38.8 °F 97% 30.13 in 10.0 mi Calm Calm - N/A   Clear
12:35 AM 40.1 °F - 39.2 °F 97% 30.13 in 10.0 mi Calm Calm - N/A   Clear
12:55 AM 39.6 °F - 38.5 °F 96% 30.13 in 10.0 mi Calm Calm - N/A   Clear
1:15 AM 40.3 °F - 39.6 °F 97% 30.14 in 7.0 mi Calm Calm - N/A   Clear
1:35 AM 43.7 °F 39.7 °F 41.9 °F 93% 30.15 in 10.0 mi ENE 6.9 mph - N/A   Clear
1:55 AM 45.3 °F 41.6 °F 41.0 °F 85% 30.16 in 10.0 mi ENE 6.9 mph - N/A   Clear
2:35 AM 45.7 °F 43.4 °F 41.0 °F 84% 30.16 in 10.0 mi ENE 4.6 mph - N/A   Clear
2:55 AM 44.4 °F 42.9 °F 40.3 °F 85% 30.17 in 10.0 mi NE 3.5 mph - N/A   Clear
3:15 AM 43.2 °F - 40.1 °F 89% 30.17 in 10.0 mi Calm Calm - N/A   Clear
3:35 AM 43.2 °F 41.5 °F 40.3 °F 90% 30.17 in 10.0 mi NNE 3.5 mph - N/A   Clear
3:55 AM 42.8 °F - 39.9 °F 90% 30.18 in 10.0 mi Calm Calm - N/A   Clear
4:15 AM 41.7 °F 38.0 °F 39.4 °F 91% 30.17 in 10.0 mi NE 5.8 mph - N/A   Clear
4:35 AM 42.4 °F 38.8 °F 40.3 °F 92% 30.17 in 10.0 mi NE 5.8 mph - N/A   Clear
4:55 AM 41.9 °F - 39.7 °F 92% 30.17 in 10.0 mi Calm Calm - N/A   Clear
5:15 AM 41.9 °F - 40.1 °F 93% 30.17 in 10.0 mi Calm Calm - N/A   Clear
5:35 AM 41.9 °F - 40.1 °F 93% 30.17 in 10.0 mi Calm Calm - N/A   Clear
5:55 AM 41.9 °F - 40.3 °F 94% 30.17 in 7.0 mi Calm Calm - N/A   Clear
6:56 AM 41.0 °F - 39.2 °F 93% 30.19 in 4.0 mi Calm Calm - N/A   Clear
7:56 AM 41.0 °F - 39.2 °F 93% 30.18 in 4.0 mi Calm Calm - N/A   Clear
8:56 AM 46.4 °F 43.5 °F 42.8 °F 87% 30.16 in 10.0 mi East 5.8 mph - N/A   Clear
9:56 AM 50.0 °F - 42.8 °F 76% 30.14 in 10.0 mi ESE 8.1 mph - N/A   Clear
10:56 AM 55.4 °F - 44.6 °F 67% 30.11 in 10.0 mi ESE 8.1 mph - N/A   Clear
11:56 AM 59.0 °F - 48.2 °F 67% 30.06 in 10.0 mi ESE 8.1 mph - N/A   Clear
12:56 PM 62.6 °F - 50.0 °F 63% 30.02 in 10.0 mi SSE 9.2 mph - N/A   Clear
1:56 PM 64.4 °F - 50.0 °F 59% 29.97 in 10.0 mi SE 9.2 mph - N/A   Clear
2:56 PM 66.2 °F - 51.8 °F 60% 29.94 in 10.0 mi SE 10.4 mph - N/A   Clear
3:56 PM 64.4 °F - 53.6 °F 68% 29.90 in 10.0 mi East 6.9 mph - N/A   Scattered Clouds
4:56 PM 60.8 °F - 53.6 °F 77% 29.87 in 10.0 mi East 6.9 mph - N/A   Scattered Clouds
5:56 PM 60.8 °F - 53.6 °F 77% 29.83 in 10.0 mi SE 6.9 mph - N/A   Scattered Clouds
6:56 PM 62.6 °F - 55.4 °F 77% 29.80 in 10.0 mi SSE 9.2 mph - N/A   Clear
7:56 PM 64.4 °F - 55.4 °F 73% 29.78 in 10.0 mi South 12.7 mph 19.6 mph N/A   Clear
8:15 PM 65.3 °F - 55.8 °F 71% 29.77 in 10.0 mi South 11.5 mph 20.7 mph N/A   Mostly Cloudy
8:35 PM 64.8 °F - 56.5 °F 74% 29.74 in 10.0 mi SSE 16.1 mph 25.3 mph N/A   Light Drizzle
8:56 PM 64.4 °F - 57.2 °F 77% 29.71 in 10.0 mi South 16.1 mph 28.8 mph N/A   Mostly Cloudy
9:15 PM 64.6 °F - 57.4 °F 77% 29.68 in 10.0 mi SSE 16.1 mph 26.5 mph N/A   Scattered Clouds
9:35 PM 65.3 °F - 57.6 °F 76% 29.66 in 10.0 mi SSE 17.3 mph 24.2 mph N/A   Clear
9:55 PM 64.6 °F - 58.5 °F 80% 29.65 in 10.0 mi SSE 20.7 mph 28.8 mph N/A Rain Light Rain
10:15 PM 63.9 °F - 59.2 °F 85% 29.63 in 7.0 mi SSE 18.4 mph 28.8 mph 0.01 in Rain Light Rain
10:35 PM 63.7 °F - 59.9 °F 87% 29.61 in 10.0 mi South 20.7 mph 26.5 mph 0.01 in Rain Light Rain
10:55 PM 63.5 °F - 60.4 °F 90% 29.58 in 7.0 mi SSE 24.2 mph 36.8 mph 0.04 in Rain Light Rain
11:15 PM 63.5 °F - 60.8 °F 91% 29.56 in 5.0 mi SSE 21.9 mph 28.8 mph 0.05 in Rain Rain
11:35 PM 63.7 °F - 61.3 °F 92% 29.55 in 5.0 mi South 20.7 mph 28.8 mph 0.08 in Rain Light Rain
11:55 PM 63.7 °F - 61.7 °F 93% 29.53 in 4.0 mi South 18.4 mph 27.6 mph 0.10 in Rain Rain